Starlink 32793

operational
NORAD ID: 62874 Int'l Des: 2025-022 Owner: SPXS Country: US Constellation: starlink
LEOCIRCULAR

关于 Starlink 32793

正在加载描述...

实时位置

正在加载3D地球...

即将过境

高度历史

Altitude vs Time

uPlot chart will show altitude changes over time

两行轨道根数

1 62874U 25022W 25259.59495138 .00028008 00000-0 95451-3 0 9990
2 62874 53.1561 218.3996 0001972 80.0494 280.0729 15.30188506 35241
Epoch: Sep 16, 2025 • Age: 13 hours

当前状态

高度 478.5 km
速度 7.63 km/s
星下点 43.88°N, 56.36°W
发射日期 Feb 2, 2025
运行时间 0.6 years
类型 internet

技术详情

分类 Payload
质量 730.00 kg
干质量 700.00 kg
总质量 730.00 kg
长度 0.30 m
直径 4.10 m
跨度 29.00 m
形状 Box + pan
制造商 SPXS
平台类型 Starlink V2M
阶段状态 In Orbit
所有者/国家 SPXS/US

大型星座

Loading constellations...